Location: Burbank
(38.7788°N, 114.0429°W)
Time: 11:20:34
(UTC+00:00)

SR - All Passes

Search period start: 15 May 2026 00:00
Search period end: 25 May 2026 00:00
Orbit: 568 x 852 km, 66.7° (Epoch: 14 May)

Date Brightness Start Highest point End Pass type
(mag) Time Alt. Az. Time Alt. Az. Time Alt. Az.
15 May - 00:08:05 10° NNW 00:13:49 70° WSW 00:19:30 10° SSE daylight
15 May - 12:56:39 10° ESE 12:57:17 10° E 12:57:55 10° E daylight
15 May - 14:33:19 10° SSW 14:38:01 79° WNW 14:43:12 10° NNE daylight
15 May - 16:18:32 10° WNW 16:20:42 13° NW 16:22:55 10° NNW daylight
15 May - 21:34:01 10° NNE 21:35:43 11° NE 21:37:25 10° NE daylight
15 May - 23:12:58 10° NNW 23:18:39 57° ENE 23:24:17 10° SE daylight
16 May - 00:55:42 10° WNW 00:59:56 21° WSW 01:04:08 10° SSW daylight
16 May - 13:38:38 10° S 13:43:02 42° ESE 13:47:50 10° NE daylight
16 May - 15:20:58 10° WSW 15:24:55 24° NW 15:29:10 10° N daylight
16 May - 22:18:18 10° N 22:23:13 29° NE 22:28:10 10° ESE daylight
16 May - 23:59:38 10° NW 00:05:08 47° WSW 00:10:34 10° S daylight
17 May - 12:45:16 10° SE 12:48:20 17° ESE 12:51:33 10° ENE daylight
17 May - 14:24:49 10° SW 14:29:27 51° WNW 14:34:32 10° NNE daylight
17 May - 21:24:10 10° N 21:27:31 16° NE 21:30:52 10° ENE daylight
17 May - 23:04:18 10° NNW 23:10:05 82° ENE 23:15:50 10° SSE daylight
18 May - 00:48:17 10° WNW 00:51:04 14° WSW 00:53:49 10° SW daylight
18 May - 13:29:37 10° SSW 13:34:18 68° ESE 13:39:26 10° NNE daylight
18 May - 15:13:19 10° W 15:16:35 17° NW 15:20:03 10° N daylight
18 May - 22:09:24 10° NNW 22:14:48 40° NE 22:20:11 10° SE daylight
18 May - 23:51:23 10° NW 23:56:23 31° WSW 00:01:19 10° S daylight
19 May - 12:35:29 10° SSE 12:39:27 27° ESE 12:43:43 10° NE daylight
19 May - 14:16:34 10° WSW 14:20:57 34° NW 14:25:44 10° NNE daylight
19 May - 21:14:55 10° N 21:19:14 21° NE 21:23:33 10° E daylight
19 May - 22:55:43 10° NNW 23:01:28 68° WSW 23:07:08 10° SSE daylight
20 May - 11:43:44 10° ESE 11:44:52 11° E 11:46:02 10° E visible
20 May - 13:20:53 10° SSW 13:25:38 78° WNW 13:30:52 10° NNE daylight
20 May - 15:06:09 10° WNW 15:08:20 13° NW 15:10:35 10° NNW daylight
20 May - 20:21:31 10° NNE 20:23:23 11° NE 20:25:15 10° ENE daylight
20 May - 22:00:37 10° NNW 22:06:18 58° ENE 22:11:56 10° SE daylight
20 May - 23:43:24 10° WNW 23:47:34 21° WSW 23:51:41 10° SSW daylight
21 May - 12:26:10 10° S 12:30:38 43° ESE 12:35:31 10° NE daylight
21 May - 14:08:34 10° WSW 14:12:33 24° NW 14:16:48 10° N daylight
21 May - 21:05:54 10° N 21:10:53 29° NE 21:15:50 10° ESE daylight
21 May - 22:47:18 10° NW 22:52:47 46° WSW 22:58:10 10° S daylight
22 May - 11:32:44 10° SSE 11:35:55 18° ESE 11:39:17 10° ENE visible
22 May - 13:12:23 10° SW 13:17:04 50° WNW 13:22:10 10° NNE daylight
22 May - 20:11:45 10° N 20:15:10 16° NE 20:18:35 10° E daylight
22 May - 21:51:56 10° NNW 21:57:44 84° ENE 22:03:27 10° SSE daylight
22 May - 23:36:02 10° WNW 23:38:41 13° WSW 23:41:18 10° SW daylight
23 May - 12:17:10 10° SSW 12:21:53 70° ESE 12:27:05 10° NNE daylight
23 May - 14:00:54 10° W 14:04:12 17° NW 14:07:42 10° N daylight
23 May - 20:57:00 10° NNW 21:02:27 41° NE 21:07:49 10° SE daylight
23 May - 22:39:02 10° NW 22:44:00 30° WSW 22:48:54 10° SSW daylight
24 May - 11:22:58 10° SSE 11:27:02 28° ESE 11:31:24 10° NE visible
24 May - 13:04:08 10° WSW 13:08:34 34° NW 13:13:22 10° NNE daylight
24 May - 20:02:31 10° N 20:06:53 22° NE 20:11:14 10° E daylight
24 May - 21:43:22 10° NW 21:49:06 67° WSW 21:54:44 10° SSE daylight
